AVA8598 SKPS-SKBO

Flight info

Callsign AVA8598
Flight time 1h 3m
Altitude 31000
Route TITGU2A TITGU DCT ESARO DCT GIR GIR5E
Aircraft A320/M-SDE3FGHIRWY/LB1

Departure

Time 2026-04-25 15:28
Airport Antonio Nariño Airport (SKPS)

Arrival

Time 2026-04-25 16:32
Airport El Dorado International Airport (SKBO)
Time Latitude Longitude Altitude Speed Heading
2026-04-25 14:39 1.39542 -77.28992 5908 ft 0 kts 105°
2026-04-25 15:12 1.39543 -77.28996 5908 ft 3 kts 105°
2026-04-25 15:12 1.39551 -77.29022 5908 ft 4 kts 109°
2026-04-25 15:12 1.39557 -77.29039 5908 ft 4 kts 112°
2026-04-25 15:13 1.39558 -77.29040 5908 ft 0 kts 112°
2026-04-25 15:15 1.39557 -77.29040 5908 ft 1 kts 113°
2026-04-25 15:15 1.39541 -77.29036 5908 ft 2 kts 180°
2026-04-25 15:15 1.39525 -77.29041 5908 ft 2 kts 201°
2026-04-25 15:15 1.39521 -77.29043 5908 ft 0 kts 210°
2026-04-25 15:16 1.39520 -77.29043 5909 ft 1 kts 208°
2026-04-25 15:16 1.39513 -77.29049 5909 ft 1 kts 225°
2026-04-25 15:16 1.39513 -77.29051 5909 ft 0 kts 239°
2026-04-25 15:24 1.39508 -77.29074 5910 ft 5 kts 280°
2026-04-25 15:24 1.39510 -77.29126 5913 ft 13 kts 240°
2026-04-25 15:25 1.39453 -77.29147 5917 ft 10 kts 198°
2026-04-25 15:25 1.39362 -77.29173 5923 ft 15 kts 194°
2026-04-25 15:25 1.39252 -77.29202 5926 ft 18 kts 195°
2026-04-25 15:25 1.39123 -77.29238 5933 ft 21 kts 196°
2026-04-25 15:26 1.38981 -77.29281 5938 ft 22 kts 195°
2026-04-25 15:26 1.38840 -77.29313 5941 ft 19 kts 194°
2026-04-25 15:26 1.38728 -77.29342 5947 ft 11 kts 194°
2026-04-25 15:26 1.38690 -77.29346 5957 ft 4 kts 172°
2026-04-25 15:27 1.38684 -77.29357 5953 ft 2 kts 292°
2026-04-25 15:27 1.38710 -77.29347 5956 ft 6 kts 18°
2026-04-25 15:27 1.38901 -77.29297 5941 ft 66 kts 15°
2026-04-25 15:28 1.39618 -77.29107 5907 ft 145 kts 15°
2026-04-25 15:28 1.40779 -77.28805 6163 ft 185 kts 14°
2026-04-25 15:28 1.42025 -77.28472 7104 ft 185 kts 14°
2026-04-25 15:28 1.43256 -77.28146 7694 ft 183 kts 14°
2026-04-25 15:29 1.44483 -77.27821 8227 ft 181 kts 14°
2026-04-25 15:29 1.45714 -77.27588 8727 ft 180 kts
2026-04-25 15:29 1.46966 -77.27631 9166 ft 182 kts 350°
2026-04-25 15:29 1.48261 -77.27926 9340 ft 200 kts 346°
2026-04-25 15:30 1.49662 -77.28268 9479 ft 220 kts 346°
2026-04-25 15:30 1.51235 -77.28648 9615 ft 239 kts 346°
2026-04-25 15:30 1.52922 -77.29057 9782 ft 261 kts 346°
2026-04-25 15:30 1.54769 -77.29501 10015 ft 285 kts 346°
2026-04-25 15:31 1.56778 -77.29983 10218 ft 308 kts 346°
2026-04-25 15:31 1.58911 -77.30490 10405 ft 330 kts 346°
2026-04-25 15:31 1.61220 -77.31043 10606 ft 351 kts 346°
2026-04-25 15:31 1.63622 -77.31622 11098 ft 359 kts 346°
2026-04-25 15:32 1.66067 -77.32211 11714 ft 364 kts 346°
2026-04-25 15:32 1.68538 -77.32807 12376 ft 367 kts 346°
2026-04-25 15:32 1.71044 -77.33345 13023 ft 370 kts 351°
2026-04-25 15:33 1.76227 -77.33433 14232 ft 377 kts
2026-04-25 15:33 1.78811 -77.32910 14805 ft 381 kts 15°
2026-04-25 15:33 1.81316 -77.32010 15370 ft 385 kts 24°
2026-04-25 15:33 1.83689 -77.30753 15918 ft 388 kts 32°
2026-04-25 15:34 1.85885 -77.29171 16455 ft 391 kts 37°
2026-04-25 15:34 1.88054 -77.27508 16975 ft 394 kts 37°
2026-04-25 15:34 1.90242 -77.25839 17483 ft 397 kts 38°
2026-04-25 15:34 1.91605 -77.24612 17801 ft 400 kts 45°
2026-04-25 15:35 1.95526 -77.19358 18906 ft 407 kts 55°
2026-04-25 15:35 1.97140 -77.17031 19373 ft 409 kts 55°
2026-04-25 15:35 1.98767 -77.14687 19847 ft 411 kts 55°
2026-04-25 15:36 2.02040 -77.09960 20755 ft 415 kts 55°
2026-04-25 15:36 2.03690 -77.07582 21182 ft 417 kts 54°
2026-04-25 15:36 2.05352 -77.05193 21595 ft 419 kts 54°
2026-04-25 15:37 2.07025 -77.02789 21999 ft 422 kts 54°
2026-04-25 15:37 2.08706 -77.00375 22401 ft 424 kts 54°
2026-04-25 15:37 2.10399 -76.97950 22782 ft 426 kts 54°
2026-04-25 15:37 2.12075 -76.95547 23166 ft 427 kts 55°
2026-04-25 15:38 2.13773 -76.93105 23526 ft 429 kts 55°
2026-04-25 15:38 2.15474 -76.90652 23873 ft 431 kts 55°
2026-04-25 15:38 2.17185 -76.88187 24216 ft 433 kts 55°
2026-04-25 15:38 2.18905 -76.85713 24558 ft 434 kts 55°
2026-04-25 15:39 2.20631 -76.83227 24900 ft 436 kts 55°
2026-04-25 15:39 2.22366 -76.80731 25250 ft 437 kts 55°
2026-04-25 15:39 2.24107 -76.78227 25581 ft 438 kts 56°
2026-04-25 15:39 2.25850 -76.75718 25888 ft 440 kts 56°
2026-04-25 15:40 2.27596 -76.73200 26202 ft 442 kts 56°
2026-04-25 15:40 2.28167 -76.72377 26298 ft 442 kts 56°
2026-04-25 15:40 2.31113 -76.68128 26830 ft 445 kts 56°
2026-04-25 15:40 2.32881 -76.65583 27133 ft 446 kts 56°
2026-04-25 15:41 2.34657 -76.63033 27425 ft 448 kts 56°
2026-04-25 15:41 2.36512 -76.60525 27708 ft 450 kts 51°
2026-04-25 15:41 2.38693 -76.58276 27981 ft 452 kts 45°
2026-04-25 15:41 2.40985 -76.56112 28253 ft 453 kts 45°
2026-04-25 15:42 2.43273 -76.53938 28520 ft 455 kts 45°
2026-04-25 15:42 2.45534 -76.51781 28772 ft 456 kts 45°
2026-04-25 15:42 2.47827 -76.49593 29032 ft 457 kts 45°
2026-04-25 15:42 2.50132 -76.47401 29274 ft 458 kts 45°
2026-04-25 15:43 2.52445 -76.45205 29505 ft 460 kts 46°
2026-04-25 15:43 2.54769 -76.42996 29750 ft 461 kts 46°
2026-04-25 15:43 2.57091 -76.40790 30059 ft 460 kts 46°
2026-04-25 15:43 2.59410 -76.38586 30397 ft 459 kts 46°
2026-04-25 15:44 2.61719 -76.36390 30743 ft 457 kts 46°
2026-04-25 15:44 2.64016 -76.34201 31084 ft 456 kts 46°
2026-04-25 15:44 2.66314 -76.32011 31196 ft 453 kts 46°
2026-04-25 15:44 2.68592 -76.29848 31212 ft 450 kts 46°
2026-04-25 15:45 2.73129 -76.25531 31201 ft 449 kts 46°
2026-04-25 15:45 2.76130 -76.22670 31192 ft 449 kts 46°
2026-04-25 15:46 2.82190 -76.16900 31205 ft 450 kts 46°
2026-04-25 15:46 2.86693 -76.12616 31170 ft 449 kts 46°
2026-04-25 15:47 2.91224 -76.08313 31146 ft 450 kts 46°
2026-04-25 15:47 2.95769 -76.04008 31139 ft 449 kts 46°
2026-04-25 15:48 3.00365 -75.99653 31160 ft 460 kts 46°
2026-04-25 15:48 3.05015 -75.95227 31150 ft 463 kts 46°
2026-04-25 15:49 3.09685 -75.90786 31150 ft 464 kts 45°
2026-04-25 15:49 3.14367 -75.86334 31133 ft 464 kts 46°
2026-04-25 15:50 3.19059 -75.81885 31138 ft 465 kts 46°
2026-04-25 15:50 3.23747 -75.77435 31125 ft 464 kts 46°
2026-04-25 15:51 3.26848 -75.74483 31117 ft 464 kts 46°
2026-04-25 15:51 3.33116 -75.68518 31119 ft 465 kts 46°
2026-04-25 15:52 3.37779 -75.64085 31111 ft 465 kts 46°
2026-04-25 15:52 3.42467 -75.59632 31107 ft 465 kts 46°
2026-04-25 15:53 3.47161 -75.55171 31104 ft 466 kts 46°
2026-04-25 15:53 3.51857 -75.50707 31097 ft 465 kts 46°
2026-04-25 15:54 3.56551 -75.46244 31097 ft 466 kts 46°
2026-04-25 15:54 3.61245 -75.41774 31100 ft 466 kts 46°
2026-04-25 15:55 3.65942 -75.37301 31098 ft 467 kts 46°
2026-04-25 15:55 3.70651 -75.32814 31103 ft 467 kts 46°
2026-04-25 15:56 3.75360 -75.28333 31104 ft 467 kts 45°
2026-04-25 15:56 3.80054 -75.23875 31105 ft 467 kts 45°
2026-04-25 15:57 3.83977 -75.20143 31109 ft 468 kts 45°
2026-04-25 15:57 3.88686 -75.15650 31111 ft 468 kts 45°
2026-04-25 15:58 3.93409 -75.11141 31112 ft 469 kts 45°
2026-04-25 15:58 3.98137 -75.06638 31072 ft 468 kts 45°
2026-04-25 15:59 4.02864 -75.02135 31051 ft 469 kts 45°
2026-04-25 15:59 4.05234 -74.99881 30758 ft 471 kts 45°
2026-04-25 15:59 4.07600 -74.97627 30397 ft 468 kts 45°
2026-04-25 16:00 4.09957 -74.95379 30139 ft 468 kts 45°
2026-04-25 16:00 4.11546 -74.93863 29940 ft 469 kts 45°
2026-04-25 16:00 4.14696 -74.90864 28443 ft 476 kts 44°
2026-04-25 16:00 4.17320 -74.88788 27174 ft 485 kts 34°
2026-04-25 16:01 4.20305 -74.87166 25868 ft 493 kts 24°
2026-04-25 16:01 4.23565 -74.86096 24836 ft 493 kts 13°
2026-04-25 16:01 4.26934 -74.85551 23917 ft 489 kts
2026-04-25 16:01 4.30294 -74.85114 22988 ft 485 kts
2026-04-25 16:02 4.33614 -74.84679 22536 ft 472 kts
2026-04-25 16:02 4.36810 -74.84258 22413 ft 454 kts
2026-04-25 16:02 4.39884 -74.83848 22282 ft 436 kts
2026-04-25 16:02 4.42832 -74.83457 22152 ft 421 kts
2026-04-25 16:03 4.45680 -74.83083 22025 ft 406 kts
2026-04-25 16:03 4.48405 -74.82726 21840 ft 394 kts
2026-04-25 16:03 4.51084 -74.82376 21254 ft 384 kts
2026-04-25 16:03 4.53724 -74.82030 20576 ft 382 kts
2026-04-25 16:04 4.56341 -74.81683 20182 ft 377 kts
2026-04-25 16:04 4.58942 -74.81338 19704 ft 376 kts
2026-04-25 16:04 4.61525 -74.80998 19270 ft 373 kts
2026-04-25 16:04 4.64084 -74.80662 18833 ft 369 kts
2026-04-25 16:05 4.66619 -74.80328 18506 ft 363 kts
2026-04-25 16:05 4.69061 -74.79999 18250 ft 345 kts
2026-04-25 16:05 4.73713 -74.79377 17174 ft 335 kts
2026-04-25 16:06 4.76011 -74.79089 16835 ft 332 kts
2026-04-25 16:06 4.78298 -74.79171 16662 ft 325 kts 351°
2026-04-25 16:06 4.80540 -74.79500 16680 ft 325 kts 351°
2026-04-25 16:06 4.82783 -74.79818 16681 ft 326 kts 351°
2026-04-25 16:07 4.85030 -74.80131 16661 ft 326 kts 352°
2026-04-25 16:07 4.86545 -74.80342 16638 ft 325 kts 352°
2026-04-25 16:07 4.89510 -74.80754 16629 ft 325 kts 352°
2026-04-25 16:07 4.91762 -74.81067 16629 ft 326 kts 352°
2026-04-25 16:08 4.94016 -74.81275 16627 ft 326 kts
2026-04-25 16:08 4.96269 -74.80998 16629 ft 327 kts 14°
2026-04-25 16:08 4.98441 -74.80331 16630 ft 327 kts 17°
2026-04-25 16:08 5.00613 -74.79643 16630 ft 327 kts 17°
2026-04-25 16:09 5.02784 -74.78962 16630 ft 327 kts 17°
2026-04-25 16:09 5.04939 -74.78219 16641 ft 328 kts 25°
2026-04-25 16:09 5.06773 -74.76891 16667 ft 328 kts 47°
2026-04-25 16:09 5.07992 -74.74962 16648 ft 329 kts 69°
2026-04-25 16:10 5.08420 -74.72713 16409 ft 330 kts 91°
2026-04-25 16:10 5.07960 -74.70480 16152 ft 328 kts 114°
2026-04-25 16:10 5.06870 -74.68477 15905 ft 327 kts 120°
2026-04-25 16:10 5.05721 -74.66507 15690 ft 326 kts 120°
2026-04-25 16:11 5.04575 -74.64542 15437 ft 325 kts 120°
2026-04-25 16:11 5.03452 -74.62614 15178 ft 324 kts 120°
2026-04-25 16:11 5.02322 -74.60667 14943 ft 322 kts 120°
2026-04-25 16:11 5.01184 -74.58700 14710 ft 321 kts 120°
2026-04-25 16:12 5.00079 -74.56787 14484 ft 320 kts 120°
2026-04-25 16:12 4.98960 -74.54857 14258 ft 319 kts 120°
2026-04-25 16:12 4.97848 -74.52933 14028 ft 318 kts 120°
2026-04-25 16:12 4.97103 -74.51643 13879 ft 317 kts 120°
2026-04-25 16:13 4.95640 -74.49112 13583 ft 315 kts 120°
2026-04-25 16:13 4.94541 -74.47216 13354 ft 314 kts 120°
2026-04-25 16:13 4.93448 -74.45332 13138 ft 311 kts 120°
2026-04-25 16:13 4.92380 -74.43485 13007 ft 302 kts 120°
2026-04-25 16:14 4.91336 -74.41690 12876 ft 293 kts 122°
2026-04-25 16:14 4.90163 -74.40033 12651 ft 289 kts 126°
2026-04-25 16:14 4.88983 -74.38400 12359 ft 288 kts 126°
2026-04-25 16:14 4.87823 -74.36782 12197 ft 281 kts 125°
2026-04-25 16:15 4.86703 -74.35210 12094 ft 272 kts 125°
2026-04-25 16:15 4.85620 -74.33691 12008 ft 263 kts 125°
2026-04-25 16:15 4.84528 -74.32264 11915 ft 254 kts 134°
2026-04-25 16:15 4.83226 -74.31096 11623 ft 249 kts 139°
2026-04-25 16:16 4.81927 -74.29979 11331 ft 243 kts 140°
2026-04-25 16:16 4.80653 -74.28890 11079 ft 239 kts 140°
2026-04-25 16:16 4.79411 -74.27824 10856 ft 228 kts 137°
2026-04-25 16:16 4.78418 -74.26656 10631 ft 213 kts 126°
2026-04-25 16:17 4.77547 -74.25502 10438 ft 204 kts 126°
2026-04-25 16:17 4.76710 -74.24396 10202 ft 193 kts 126°
2026-04-25 16:17 4.75936 -74.23374 9949 ft 177 kts 126°
2026-04-25 16:17 4.75206 -74.22410 9719 ft 171 kts 126°
2026-04-25 16:18 4.74494 -74.21468 9497 ft 168 kts 126°
2026-04-25 16:18 4.74263 -74.21163 9423 ft 168 kts 126°
2026-04-25 16:18 4.73086 -74.19608 9054 ft 166 kts 126°
2026-04-25 16:18 4.72386 -74.18683 8831 ft 166 kts 126°
2026-04-25 16:19 4.71696 -74.17773 8617 ft 166 kts 126°
2026-04-25 16:19 4.70997 -74.16849 8411 ft 170 kts 126°
2026-04-25 16:19 4.70252 -74.15853 8964 ft 180 kts 126°
2026-04-25 16:20 4.68614 -74.13686 9658 ft 214 kts 126°
2026-04-25 16:20 4.67681 -74.12436 9787 ft 234 kts 130°
2026-04-25 16:20 4.64593 -74.11776 10513 ft 249 kts 208°
2026-04-25 16:21 4.63375 -74.12976 10983 ft 249 kts 245°
2026-04-25 16:21 4.62919 -74.14647 11491 ft 250 kts 263°
2026-04-25 16:21 4.62712 -74.16379 12003 ft 250 kts 264°
2026-04-25 16:21 4.62509 -74.18117 12494 ft 252 kts 264°
2026-04-25 16:22 4.62304 -74.19866 12986 ft 253 kts 264°
2026-04-25 16:22 4.62091 -74.21624 13482 ft 255 kts 261°
2026-04-25 16:22 4.61699 -74.23373 13887 ft 263 kts 255°
2026-04-25 16:22 4.61157 -74.25154 13962 ft 268 kts 252°
2026-04-25 16:23 4.60713 -74.26963 13957 ft 267 kts 270°
2026-04-25 16:23 4.61069 -74.28768 13952 ft 266 kts 297°
2026-04-25 16:23 4.62024 -74.30356 13948 ft 266 kts 304°
2026-04-25 16:23 4.63077 -74.31887 13939 ft 267 kts 305°
2026-04-25 16:24 4.64148 -74.33413 13738 ft 268 kts 305°
2026-04-25 16:24 4.65222 -74.34934 13480 ft 266 kts 305°
2026-04-25 16:24 4.66282 -74.36440 13231 ft 263 kts 305°
2026-04-25 16:24 4.67338 -74.37937 12980 ft 264 kts 306°
2026-04-25 16:25 4.68038 -74.38926 12811 ft 261 kts 305°
2026-04-25 16:25 4.68793 -74.39859 12636 ft 262 kts 318°
2026-04-25 16:25 4.71530 -74.41038 12218 ft 259 kts 359°
2026-04-25 16:25 4.73251 -74.40729 11980 ft 254 kts 24°
2026-04-25 16:26 4.74714 -74.39796 11918 ft 244 kts 37°
2026-04-25 16:26 4.76051 -74.38793 11927 ft 239 kts 36°
2026-04-25 16:26 4.77385 -74.37795 11932 ft 239 kts 36°
2026-04-25 16:26 4.78696 -74.36810 11963 ft 233 kts 36°
2026-04-25 16:27 4.79987 -74.35841 11948 ft 229 kts 36°
2026-04-25 16:27 4.81236 -74.34902 11945 ft 221 kts 37°
2026-04-25 16:27 4.82271 -74.33792 11937 ft 219 kts 61°
2026-04-25 16:27 4.82702 -74.32336 11925 ft 220 kts 88°
2026-04-25 16:28 4.82436 -74.30833 11834 ft 221 kts 115°
2026-04-25 16:28 4.81520 -74.29613 11582 ft 220 kts 140°
2026-04-25 16:28 4.80347 -74.28622 11263 ft 220 kts 140°
2026-04-25 16:28 4.79195 -74.27619 10929 ft 219 kts 134°
2026-04-25 16:29 4.78254 -74.26434 10643 ft 217 kts 126°
2026-04-25 16:29 4.77343 -74.25228 10374 ft 217 kts 126°
2026-04-25 16:29 4.76439 -74.24037 10083 ft 210 kts 126°
2026-04-25 16:29 4.75597 -74.22925 9863 ft 195 kts 126°
2026-04-25 16:30 4.75061 -74.22218 9682 ft 183 kts 126°
2026-04-25 16:30 4.74082 -74.20924 9359 ft 171 kts 126°
2026-04-25 16:30 4.73371 -74.19985 9140 ft 168 kts 126°
2026-04-25 16:30 4.72669 -74.19057 8917 ft 167 kts 127°
2026-04-25 16:31 4.71969 -74.18133 8700 ft 167 kts 127°
2026-04-25 16:31 4.71272 -74.17213 8485 ft 165 kts 127°
2026-04-25 16:31 4.70594 -74.16315 8366 ft 149 kts 127°
2026-04-25 16:31 4.70073 -74.15629 8364 ft 99 kts 127°
2026-04-25 16:32 4.69794 -74.15258 8365 ft 42 kts 126°
2026-04-25 16:32 4.69715 -74.15038 8364 ft 25 kts 98°
2026-04-25 16:32 4.69730 -74.14890 8365 ft 19 kts 34°
2026-04-25 16:32 4.69850 -74.14834 8366 ft 19 kts 29°
2026-04-25 16:33 4.69950 -74.14762 8366 ft 17 kts 38°
2026-04-25 16:33 4.70041 -74.14694 8366 ft 13 kts 36°
2026-04-25 16:33 4.70041 -74.14613 8366 ft 12 kts 89°
2026-04-25 16:33 4.70019 -74.14541 8366 ft 10 kts 126°
2026-04-25 16:34 4.69977 -74.14488 8366 ft 9 kts 127°
2026-04-25 16:34 4.69941 -74.14439 8366 ft 8 kts 127°
2026-04-25 16:34 4.69910 -74.14399 8366 ft 7 kts 127°
2026-04-25 16:34 4.69883 -74.14363 8366 ft 6 kts 133°
2026-04-25 16:35 4.69858 -74.14363 8366 ft 2 kts 222°
2026-04-25 16:35 4.69841 -74.14381 8366 ft 3 kts 226°
2026-04-25 16:35 4.69834 -74.14388 8366 ft 1 kts 226°
2026-04-25 16:35 4.69833 -74.14389 8366 ft 0 kts 226°
2026-04-25 16:36 4.69831 -74.14391 8366 ft 0 kts 226°
2026-04-25 16:36 4.69831 -74.14392 8366 ft 0 kts 226°